Location: Cointrin
(46.2167°N, 6.1167°E)
Time: 05:37:53
(UTC+00:00)

SKYMED 2 - Pass Details

Date: 08 February 2023
Orbit: 621 x 623 km, 97.9° (Epoch: 25 March)

Event Time Altitude Azimuth Distance (km) Brightness Sun altitude
Rises 17:46:59 0° 13° (NNE) 2,918 6.8 -10.2°
Reaches altitude 10° 17:49:11 10° 14° (NNE) 2,006 5.9 -10.6°
Maximum altitude 17:53:34 88° 99° (E) 631 3.5 -11.4°
Drops below altitude 10° 17:57:54 10° 194° (SSW) 1,988 6.5 -12.1°
Sets 18:00:05 0° 194° (SSW) 2,889 7.3 -12.5°
